Wind_Speed
14 14 14 13 13 14 14 14 14 13 13 13 13 12 11 10 8 7 5 4 3 1 2 3 4 5 6 7 9 10 12 14 15 16 18 19 21 22 23 24 24 25 26
16 16 16 15 15 15 15 15 14 13 13 12 12 11 11 10 8 6 5 4 3 1 1 2 4 5 6 7 8 9 11 12 14 15 16 17 18 20 21 23 24 25 26
18 18 18 18 17 16 16 15 15 14 13 12 12 11 10 9 8 6 5 4 3 2 1 2 4 5 6 7 9 9 10 11 12 13 14 16 17 18 19 21 22 23 24
19 19 20 20 19 18 18 17 16 15 14 13 12 11 10 9 8 7 5 5 4 3 2 3 4 5 6 7 8 9 10 11 12 12 13 14 15 16 18 19 20 21 22
21 21 21 22 22 21 20 19 18 17 16 15 14 13 12 10 9 7 6 5 5 4 4 5 5 5 6 7 8 9 10 11 11 13 13 14 15 16 17 18 19 20 22
22 22 23 23 23 23 23 22 21 20 19 18 17 16 14 13 11 10 8 7 6 6 6 6 6 7 7 8 8 9 10 11 12 12 13 14 15 16 17 18 19 20 21
24 24 24 24 25 25 25 25 24 23 22 21 20 19 17 15 14 13 11 10 9 8 8 8 7 8 8 8 9 10 10 10 11 12 13 14 15 16 17 17 18 19 20
27 27 27 26 26 26 26 26 26 26 25 24 23 22 20 19 17 16 15 13 12 11 10 10 10 9 9 9 10 10 11 11 12 12 13 14 14 15 16 17 18 18 19
29 29 29 29 28 28 28 28 28 28 27 26 25 24 23 22 21 20 18 17 15 14 14 13 13 12 11 11 11 12 12 12 12 13 13 14 14 15 16 16 17 18 19
32 32 32 32 32 31 31 31 30 30 30 29 28 27 26 25 24 23 22 20 19 18 17 16 15 15 14 14 14 13 14 14 14 14 14 15 16 16 17 17 18 19 19
36 35 35 35 35 34 34 34 33 32 32 32 31 30 29 28 28 26 25 24 23 21 20 19 18 18 17 17 16 16 16 16 15 15 15 16 16 17 17 18 19 19 20
39 39 39 39 38 38 37 37 36 36 35 34 34 33 32 31 31 30 29 27 26 25 24 22 21 20 19 19 18 18 18 18 17 17 17 17 17 18 18 19 20 20 21
43 43 42 42 41 40 40 39 39 39 38 37 37 35 35 34 34 33 32 31 30 28 27 26 24 23 22 21 20 20 19 19 19 18 18 18 18 19 19 20 20 21 21
47 47 46 45 45 44 43 42 42 41 41 40 39 38 38 38 37 35 34 34 33 32 31 29 28 27 25 24 23 23 22 21 21 20 20 20 20 20 20 21 21 22 22
49 49 49 48 48 47 46 45 45 44 44 43 42 42 41 40 39 39 38 36 35 35 34 32 31 30 29 28 27 26 25 24 24 23 23 22 22 22 22 22 23 23 24
51 51 50 49 49 49 49 48 47 46 46 45 45 45 44 43 42 42 41 40 38 38 36 35 34 33 32 30 29 29 28 27 27 26 25 25 24 24 24 24 24 25 25
52 51 51 50 50 50 50 50 49 48 48 48 47 47 46 46 45 45 44 43 42 40 39 38 37 36 34 33 32 31 31 30 29 29 28 27 27 26 26 26 26 26 27
52 52 52 52 51 50 51 51 51 51 50 50 49 49 48 48 48 48 47 46 44 42 41 40 39 38 37 36 35 34 33 32 31 31 30 29 29 29 28 28 28 28 28
53 53 53 53 52 51 52 53 53 53 53 52 51 51 51 51 51 50 49 48 46 44 43 42 41 41 40 39 37 36 35 34 33 33 32 31 31 30 30 30 29 29 30
55 54 54 54 53 53 53 54 54 55 55 55 54 53 53 53 53 53 52 50 48 47 45 44 43 42 42 41 40 38 37 36 35 34 34 33 32 32 31 31 30 30 31
54 53 53 53 53 53 53 53 54 55 56 56 56 56 55 55 55 54 54 53 51 50 48 47 45 44 43 42 41 40 39 38 36 36 35 34 34 33 32 32 32 31 31
53 52 51 52 52 53 54 54 53 54 55 56 57 58 58 57 56 56 55 55 54 53 51 50 48 46 45 44 43 41 40 39 38 37 36 35 35 34 34 33 33 32 32
53 52 51 51 51 52 53 53 53 53 54 56 57 58 58 58 57 57 56 56 55 55 54 52 50 49 47 45 44 43 41 40 39 38 37 36 35 35 34 34 34 34 34
54 53 52 51 50 50 50 50 51 51 51 52 53 55 56 56 56 56 55 55 55 56 55 53 52 50 48 47 45 44 43 42 40 39 38 37 36 36 35 35 34 35 35
53 52 51 50 49 48 48 48 48 48 48 49 50 52 53 53 54 54 54 54 55 55 55 54 52 51 50 48 47 46 44 43 41 40 39 37 37 36 36 36 35 35 35
52 51 50 48 47 46 46 46 46 46 46 47 48 49 50 51 52 53 52 52 52 52 52 53 52 51 50 49 49 47 45 43 42 41 40 39 38 37 36 36 36 36 36
Wind_Direction
289 291 294 298 302 309 315 322 328 333 337 342 347 353 356 360 3 6 10 13 23 51 162 184 198 206 213 211 212 214 216 218 221 223 225 227 230 232 233 234 236 238 239
289 287 288 291 294 299 305 311 316 321 326 331 336 342 349 353 356 357 360 359 357 344 213 207 209 215 221 220 219 219 219 220 222 224 229 230 232 233 236 238 240 241 241
290 287 285 286 288 292 296 300 304 308 313 318 323 328 334 340 345 348 345 347 340 321 275 237 226 223 224 223 224 227 226 225 227 228 233 235 236 236 239 240 240 240 242
293 289 286 283 283 285 288 291 294 297 300 304 309 313 317 321 325 328 328 324 318 306 286 260 243 233 229 226 225 226 229 230 233 235 237 237 239 241 242 244 244 243 245
295 292 288 284 281 281 282 284 286 288 290 292 295 298 301 303 306 307 307 303 296 285 275 265 254 242 234 231 230 229 230 233 238 240 241 242 243 245 248 249 249 250 251
296 294 291 287 283 281 279 280 281 281 282 283 284 286 289 291 290 290 290 287 282 276 270 263 256 251 247 244 241 239 238 239 242 244 246 247 247 249 250 252 253 253 254
295 293 291 288 285 282 279 277 277 277 277 276 277 277 279 280 281 280 279 278 275 270 265 262 259 256 254 251 248 246 246 247 248 251 252 253 252 251 253 254 255 256 256
293 292 290 288 285 283 280 276 274 274 274 273 272 272 273 273 273 273 272 271 270 266 263 260 258 256 255 254 251 249 250 251 252 254 256 255 255 255 257 258 259 260 259
290 289 288 286 284 283 280 276 273 272 271 271 270 269 269 269 268 267 267 266 265 264 261 259 258 256 255 254 254 253 253 253 256 259 259 259 260 259 258 259 261 264 264
288 286 285 285 283 282 279 276 273 270 269 268 267 266 266 266 265 264 263 263 262 261 259 258 256 256 256 255 256 257 258 259 259 260 262 263 264 266 265 264 264 265 266
284 283 282 281 280 279 277 275 272 270 267 266 265 264 263 263 262 262 261 260 259 258 257 257 256 255 255 255 255 257 260 262 263 263 264 265 266 267 268 268 268 268 268
283 281 279 278 276 275 275 274 272 269 267 265 263 262 261 260 260 259 259 258 257 257 256 255 255 254 255 255 256 257 259 260 262 264 265 266 268 269 269 270 270 271 271
283 280 278 276 274 272 272 271 270 268 266 264 262 260 260 259 258 257 257 257 256 255 255 255 254 254 254 255 256 256 258 259 261 263 265 267 268 269 270 271 272 272 273
284 280 277 275 273 271 269 268 267 266 265 263 261 259 258 257 256 256 255 255 255 254 253 253 254 254 254 254 255 257 258 258 260 262 265 266 268 269 271 272 274 274 275
284 281 277 274 272 270 269 267 265 264 263 261 260 258 257 256 255 254 254 254 254 253 253 253 253 253 254 254 255 256 257 259 260 262 264 266 268 269 271 273 275 276 276
285 281 278 274 271 269 268 266 264 262 261 259 258 257 256 254 253 253 252 252 252 252 252 253 252 253 253 254 255 256 257 258 260 262 263 265 267 269 271 273 275 276 277
286 282 278 275 271 267 265 264 262 261 260 259 257 255 254 253 252 252 252 251 251 251 252 252 252 253 253 254 255 256 257 258 260 261 263 264 266 268 270 272 274 276 277
287 284 280 276 273 268 264 263 261 258 257 257 256 255 253 252 251 251 251 251 251 251 252 252 252 252 253 254 254 255 256 257 259 260 262 264 265 267 270 271 273 275 277
289 285 281 278 274 270 265 262 260 258 255 254 254 254 253 252 250 249 249 250 250 250 250 251 251 252 252 253 254 255 256 257 258 260 261 263 265 267 269 271 273 275 277
289 286 283 279 275 271 268 264 260 258 255 253 252 252 252 251 251 250 249 249 248 248 248 249 250 251 252 252 253 254 255 256 258 259 261 263 265 267 269 271 273 275 277
290 287 284 281 276 272 269 265 261 258 255 253 251 250 250 251 250 249 248 247 248 247 246 247 248 250 251 251 252 253 254 256 257 259 260 262 264 267 268 270 272 274 276
291 289 286 283 279 274 270 267 263 259 256 253 251 249 249 249 249 247 247 246 245 246 246 245 246 248 249 250 251 252 254 255 256 258 260 262 264 266 268 270 272 274 276
292 290 287 284 281 276 272 268 264 260 257 254 251 249 248 247 247 247 245 244 244 244 244 244 244 246 247 248 249 251 252 253 255 257 259 262 264 266 269 271 272 275 277
292 291 289 286 284 280 275 270 265 261 257 254 251 249 247 245 244 244 243 243 242 242 243 243 244 244 245 246 247 249 251 252 253 256 258 261 263 266 268 271 274 276 278
293 292 290 288 285 282 276 271 266 262 258 253 249 246 244 243 242 241 241 242 241 241 241 242 242 243 244 245 246 247 249 251 252 254 256 259 263 266 269 271 273 276 278
295 293 292 290 287 283 279 273 267 263 258 252 248 245 242 241 240 239 238 239 240 241 241 242 241 242 243 243 244 245 247 249 251 253 256 258 262 265 268 270 273 275 279
Height
5821 5820 5819 5817 5816 5814 5812 5810 5808 5806 5803 5801 5798 5795 5792 5790 5788 5786 5784 5783 5782 5782 5782 5782 5783 5784 5785 5786 5788 5789 5791 5794 5796 5798 5801 5803 5806 5808 5811 5814 5816 5819 5821
5817 5816 5815 5814 5813 5812 5810 5808 5806 5805 5802 5800 5798 5795 5793 5790 5788 5786 5785 5784 5783 5782 5782 5782 5783 5783 5784 5785 5786 5787 5789 5791 5793 5795 5797 5799 5801 5804 5806 5808 5810 5812 5815
5814 5813 5812 5811 5810 5809 5807 5806 5804 5803 5801 5799 5797 5795 5793 5790 5788 5786 5785 5784 5783 5782 5782 5782 5782 5782 5783 5784 5784 5786 5787 5788 5790 5792 5793 5795 5797 5799 5801 5803 5805 5807 5809
5810 5809 5808 5807 5806 5805 5804 5803 5801 5800 5799 5797 5796 5794 5792 5790 5788 5786 5785 5783 5782 5782 5781 5781 5781 5781 5781 5782 5783 5783 5784 5786 5787 5789 5790 5791 5793 5794 5796 5797 5799 5801 5803
5806 5805 5804 5803 5802 5801 5800 5799 5798 5797 5795 5794 5793 5792 5790 5789 5787 5785 5784 5783 5782 5781 5780 5780 5780 5780 5780 5780 5781 5781 5782 5783 5784 5785 5786 5787 5788 5790 5791 5792 5794 5795 5797
5801 5800 5799 5798 5797 5796 5795 5794 5793 5792 5791 5791 5790 5788 5787 5786 5785 5784 5782 5781 5780 5779 5779 5778 5778 5778 5778 5778 5778 5779 5779 5780 5781 5781 5782 5783 5784 5785 5786 5787 5788 5789 5791
5796 5795 5793 5792 5791 5790 5789 5789 5788 5787 5787 5786 5785 5785 5784 5783 5782 5781 5780 5779 5778 5777 5777 5776 5776 5775 5775 5775 5776 5776 5776 5777 5777 5778 5778 5779 5780 5781 5782 5782 5783 5784 5785
5790 5789 5787 5786 5784 5784 5783 5782 5782 5781 5781 5780 5780 5780 5779 5778 5778 5777 5776 5775 5775 5774 5774 5773 5773 5773 5773 5773 5773 5773 5773 5773 5774 5774 5774 5775 5775 5776 5776 5777 5778 5778 5779
5783 5781 5780 5778 5777 5776 5775 5775 5774 5774 5774 5774 5774 5773 5773 5773 5773 5772 5772 5771 5771 5770 5770 5769 5769 5769 5769 5769 5769 5769 5770 5770 5770 5770 5770 5770 5771 5771 5771 5772 5772 5773 5773
5775 5773 5771 5770 5769 5768 5767 5766 5766 5766 5766 5766 5766 5766 5766 5766 5766 5766 5766 5766 5766 5765 5765 5765 5765 5765 5765 5765 5765 5765 5765 5765 5765 5765 5766 5766 5766 5766 5766 5767 5767 5767 5767
5765 5763 5762 5760 5759 5758 5758 5757 5757 5757 5757 5757 5758 5758 5758 5758 5759 5759 5759 5760 5759 5759 5759 5759 5759 5759 5760 5760 5760 5760 5760 5760 5761 5761 5761 5761 5761 5761 5761 5761 5761 5761 5761
5753 5752 5750 5749 5748 5748 5747 5746 5746 5746 5747 5747 5748 5749 5749 5749 5750 5751 5751 5752 5752 5753 5753 5753 5753 5753 5754 5754 5754 5754 5755 5755 5755 5755 5755 5755 5755 5755 5755 5755 5755 5755 5754
5740 5738 5737 5736 5735 5735 5735 5735 5734 5735 5735 5736 5737 5738 5739 5739 5740 5741 5742 5743 5744 5744 5745 5745 5746 5746 5747 5747 5748 5748 5748 5749 5749 5749 5749 5749 5749 5749 5749 5748 5748 5748 5748
5725 5723 5722 5722 5721 5721 5721 5721 5721 5722 5723 5724 5725 5726 5727 5728 5729 5730 5731 5733 5734 5735 5736 5737 5738 5738 5739 5740 5741 5741 5742 5742 5742 5743 5743 5743 5743 5742 5742 5742 5741 5741 5741
5708 5707 5706 5705 5705 5705 5705 5706 5707 5708 5709 5710 5712 5713 5714 5716 5718 5718 5720 5722 5723 5725 5726 5727 5729 5730 5731 5732 5732 5733 5734 5734 5735 5735 5735 5735 5735 5735 5735 5735 5734 5734 5733
5690 5689 5688 5688 5688 5688 5689 5690 5691 5693 5694 5695 5697 5699 5700 5702 5704 5705 5707 5709 5711 5713 5715 5717 5719 5720 5721 5722 5723 5724 5725 5726 5727 5727 5727 5728 5728 5728 5727 5727 5726 5726 5725
5671 5670 5669 5669 5669 5670 5671 5673 5675 5676 5677 5679 5681 5683 5686 5688 5689 5691 5694 5696 5698 5701 5704 5706 5708 5709 5711 5712 5713 5715 5716 5717 5717 5718 5719 5719 5719 5719 5719 5718 5718 5717 5717
5654 5652 5650 5650 5650 5651 5652 5654 5656 5659 5661 5663 5665 5667 5670 5672 5674 5677 5679 5682 5685 5688 5691 5694 5696 5698 5700 5701 5703 5704 5706 5707 5708 5709 5709 5710 5710 5710 5710 5709 5709 5708 5708
5636 5633 5632 5631 5631 5631 5632 5634 5636 5639 5642 5645 5648 5650 5652 5655 5658 5661 5664 5668 5672 5675 5678 5681 5683 5686 5688 5690 5692 5693 5695 5696 5698 5699 5699 5700 5700 5700 5700 5700 5700 5699 5698
5618 5614 5612 5611 5611 5611 5612 5613 5615 5618 5621 5625 5629 5632 5634 5637 5641 5645 5649 5653 5657 5660 5664 5667 5670 5672 5675 5678 5680 5682 5684 5686 5687 5688 5689 5690 5690 5690 5690 5690 5690 5689 5688
5599 5596 5593 5591 5591 5590 5591 5592 5594 5596 5600 5604 5608 5612 5615 5619 5623 5628 5632 5636 5641 5645 5649 5652 5655 5659 5662 5665 5667 5670 5672 5674 5676 5677 5678 5679 5680 5680 5680 5680 5680 5679 5678
5582 5579 5576 5573 5571 5571 5570 5571 5572 5575 5578 5582 5587 5591 5595 5599 5604 5609 5613 5619 5623 5628 5632 5637 5641 5645 5648 5652 5655 5657 5660 5662 5664 5666 5667 5668 5669 5669 5669 5670 5669 5669 5668
5564 5561 5558 5555 5553 5551 5551 5550 5551 5554 5557 5561 5565 5569 5573 5578 5584 5589 5594 5599 5605 5610 5616 5621 5625 5630 5634 5638 5641 5644 5647 5650 5652 5654 5656 5657 5658 5658 5659 5659 5659 5658 5657
5547 5543 5540 5537 5535 5533 5532 5531 5532 5533 5536 5539 5543 5548 5553 5558 5563 5569 5574 5580 5586 5592 5598 5604 5610 5615 5619 5623 5627 5631 5634 5637 5639 5642 5644 5645 5646 5647 5648 5648 5648 5647 5646
5530 5526 5522 5519 5517 5515 5513 5513 5513 5514 5516 5519 5523 5528 5533 5539 5544 5550 5556 5562 5568 5575 5581 5588 5594 5599 5604 5609 5613 5617 5621 5624 5627 5629 5631 5633 5635 5636 5636 5636 5636 5636 5635
5514 5509 5506 5502 5499 5497 5495 5494 5495 5496 5498 5501 5505 5509 5515 5521 5526 5533 5539 5546 5552 5559 5565 5572 5578 5584 5589 5594 5599 5603 5607 5611 5614 5617 5619 5621 5623 5624 5624 5624 5624 5624 5623